Showing default

CENTISPACE-1 S10, 62579

Orbit data source: Space-Track

CENTISPACE-1 S10, 62579 is a payload satellite owned by Centispace (CN) in LEO that was launched on Mon, 13 Jan 2025 UTC via a JIELONG-3 launch vehicle from the Yellow Sea Launch Area, China (YSLA). Payload-class satellites include a variety of spacecraft equipped with specific instruments for various scientific and technological missions. These include communications satellites like Starlink; space stations such as the ISS; scientific satellites like the Hubble; Earth observation satellites from companies like Planet Labs, Umbra, and HawkEye 360; GPS; miniature CubeSats for education and research; and military/defense satellites.

Loading next visibility...
Identifier
62579, 2025-007E
Orbit
LEO
Country
Flag of CNCN / PRC
Related business
Manufacturer
DFH Shenzhen
Mission
Operational Commercial Nav/Com
Bus & Motor
WK01, Unknown motor
Mass
140 kg wet, 140 kg dry
Launch date (UTC)
2025-01-13 (8 months ago)
Launch vehicle
JIELONG-3
Launch site
Yellow Sea Launch Area, China (YSLA)
Object type
Payload
Rocket body
Debris
Shape & HBR
Box + 2 Pan, 1.0 m
Radar Cross Section
0.833 m², Medium (>0.1 m² and < 1m²)

Expand to show TLE details & history
Last TLE update: 2 days ago

TLE from 2 days ago
0 CENTISPACE-1 S10
1 62579U 25007E   25260.03331510  .00000350  00000-0  13710-3 0  9997
2 62579  54.9847 207.7589 0064014   0.1501 359.9495 14.48199144 36321
Epoch: 2025-09-17T00:47Z
TLE epoch observation values (Epoch: 2025-09-17T00:47:58.424Z)
Latitude
-0.00001°
Longitude
-160.44961°
Altitude
687.079 km
Speed
7.538 km/s
True Right ascension
13h 51m 02s
True Declination
0° 00' 00"
Sunlit
Object was in daylight at epoch
Visualization orbit readout
Latitude
Unknown
Longitude
Unknown
Altitude
Unknown
Speed
Unknown
Apparent Right ascension
Unknown
Apparent Declination
Unknown
Sunlit
N/A
Visualization observer readout
Local Sidereal Time
20:25:20
Azimuth
Unknown
Elevation
Unknown
Doppler factor
Unknown
Orbital elements
Apogee altitude
777.014 km
Perigee altitude
685.991 km
Semi-major axis
7,109.64 km
Eccentricity
0.0064
Inclination
54.9847°
RAAN
207.7589°
Arg. of periapsis
0.1501°
True anomaly
359.94885°
Mean anomaly
359.9495°
Eccentric anomaly
359.94917°
Mean motion
3.62053 °/min
Orbital period
99.43 mins
BSTAR
0.0001371
Loading maneuver chart data...
Computing Atmospheric mass density...
Loading historical data...
Loading historical data...
Loading historical data...
Loading historical data...
Loading historical data...
Loading historical data...
Loading historical data...

Documentation

Showing up to 5 results
|